UAL3931 KEWR-KDCA

Flight info

Callsign UAL3931
Flight time 0h 46m
Altitude 30000
Route BIGGY Q75 MXE CLIPR3
Aircraft B738/M-SDE2E3FGHIRWXY/LB1

Departure

Time 2026-04-25 01:23
Airport Newark Liberty International Airport (KEWR)

Arrival

Time 2026-04-25 02:10
Airport Ronald Reagan Washington National Airport (KDCA)
Time Latitude Longitude Altitude Speed Heading
2026-04-25 01:04 40.69714 -74.17479 15 ft 0 kts 304°
2026-04-25 01:14 40.69711 -74.17474 15 ft 2 kts 304°
2026-04-25 01:14 40.69702 -74.17458 15 ft 2 kts 304°
2026-04-25 01:14 40.69694 -74.17441 15 ft 2 kts 305°
2026-04-25 01:14 40.69682 -74.17431 15 ft 2 kts 357°
2026-04-25 01:15 40.69669 -74.17435 15 ft 0 kts 36°
2026-04-25 01:15 40.69664 -74.17440 15 ft 1 kts 44°
2026-04-25 01:15 40.69662 -74.17442 15 ft 0 kts 41°
2026-04-25 01:17 40.69677 -74.17426 15 ft 7 kts 40°
2026-04-25 01:17 40.69731 -74.17366 15 ft 11 kts 41°
2026-04-25 01:17 40.69764 -74.17332 15 ft 8 kts 39°
2026-04-25 01:17 40.69820 -74.17262 15 ft 11 kts 45°
2026-04-25 01:18 40.69826 -74.17183 15 ft 10 kts 136°
2026-04-25 01:18 40.69771 -74.17123 15 ft 12 kts 144°
2026-04-25 01:18 40.69696 -74.17062 15 ft 12 kts 152°
2026-04-25 01:18 40.69618 -74.17020 15 ft 11 kts 160°
2026-04-25 01:19 40.69521 -74.16989 15 ft 15 kts 170°
2026-04-25 01:19 40.69413 -74.16979 15 ft 14 kts 182°
2026-04-25 01:19 40.69306 -74.16999 15 ft 17 kts 195°
2026-04-25 01:19 40.69193 -74.17059 15 ft 17 kts 206°
2026-04-25 01:20 40.69086 -74.17126 15 ft 16 kts 205°
2026-04-25 01:20 40.68985 -74.17191 15 ft 16 kts 205°
2026-04-25 01:20 40.68880 -74.17258 15 ft 17 kts 206°
2026-04-25 01:20 40.68767 -74.17329 15 ft 17 kts 206°
2026-04-25 01:21 40.68661 -74.17395 15 ft 16 kts 206°
2026-04-25 01:21 40.68549 -74.17465 15 ft 17 kts 205°
2026-04-25 01:21 40.68442 -74.17533 15 ft 16 kts 206°
2026-04-25 01:21 40.68340 -74.17598 15 ft 15 kts 206°
2026-04-25 01:22 40.68247 -74.17657 15 ft 12 kts 199°
2026-04-25 01:22 40.68216 -74.17634 15 ft 5 kts 116°
2026-04-25 01:22 40.68191 -74.17566 15 ft 6 kts 112°
2026-04-25 01:22 40.68208 -74.17526 15 ft 4 kts 36°
2026-04-25 01:23 40.68241 -74.17503 15 ft 8 kts 26°
2026-04-25 01:23 40.68573 -74.17291 15 ft 98 kts 26°
2026-04-25 01:23 40.69432 -74.16747 18 ft 173 kts 26°
2026-04-25 01:23 40.70550 -74.16031 856 ft 178 kts 30°
2026-04-25 01:24 40.71485 -74.15109 1785 ft 172 kts 46°
2026-04-25 01:24 40.72326 -74.13958 2425 ft 183 kts 47°
2026-04-25 01:24 40.73275 -74.12746 3008 ft 201 kts 43°
2026-04-25 01:24 40.74337 -74.11469 3622 ft 218 kts 42°
2026-04-25 01:25 40.75505 -74.10065 4254 ft 237 kts 40°
2026-04-25 01:25 40.76850 -74.08697 4923 ft 252 kts 24°
2026-04-25 01:25 40.78570 -74.08188 5614 ft 260 kts 355°
2026-04-25 01:25 40.80294 -74.08698 6623 ft 257 kts 335°
2026-04-25 01:26 40.81848 -74.09744 7714 ft 252 kts 322°
2026-04-25 01:26 40.82989 -74.11382 8869 ft 245 kts 300°
2026-04-25 01:26 40.83495 -74.13499 9871 ft 250 kts 283°
2026-04-25 01:26 40.83530 -74.15847 10638 ft 265 kts 270°
2026-04-25 01:27 40.82948 -74.18226 11180 ft 296 kts 248°
2026-04-25 01:27 40.81414 -74.20284 11657 ft 334 kts 220°
2026-04-25 01:27 40.79242 -74.21628 12111 ft 361 kts 206°
2026-04-25 01:28 40.74261 -74.23579 13624 ft 377 kts 202°
2026-04-25 01:28 40.71715 -74.24584 14198 ft 386 kts 207°
2026-04-25 01:28 40.69320 -74.25948 15097 ft 380 kts 216°
2026-04-25 01:28 40.67331 -74.28097 15942 ft 359 kts 240°
2026-04-25 01:29 40.66172 -74.30891 16623 ft 350 kts 258°
2026-04-25 01:29 40.65481 -74.33918 17367 ft 349 kts 262°
2026-04-25 01:29 40.64791 -74.37001 18116 ft 354 kts 259°
2026-04-25 01:29 40.63945 -74.40057 18741 ft 363 kts 256°
2026-04-25 01:30 40.62923 -74.43131 19468 ft 368 kts 252°
2026-04-25 01:30 40.61827 -74.46111 20148 ft 372 kts 251°
2026-04-25 01:30 40.60656 -74.49178 20886 ft 373 kts 251°
2026-04-25 01:30 40.59487 -74.52201 21469 ft 378 kts 251°
2026-04-25 01:31 40.58281 -74.55326 22030 ft 382 kts 251°
2026-04-25 01:31 40.57095 -74.58400 22613 ft 386 kts 251°
2026-04-25 01:31 40.55869 -74.61582 23136 ft 391 kts 251°
2026-04-25 01:31 40.54648 -74.64747 23795 ft 392 kts 251°
2026-04-25 01:32 40.53423 -74.67932 24295 ft 397 kts 251°
2026-04-25 01:32 40.52166 -74.71199 24793 ft 402 kts 251°
2026-04-25 01:32 40.50915 -74.74451 25324 ft 405 kts 251°
2026-04-25 01:32 40.49626 -74.77794 25858 ft 408 kts 251°
2026-04-25 01:33 40.48341 -74.81119 26321 ft 413 kts 251°
2026-04-25 01:33 40.47053 -74.84447 26891 ft 415 kts 251°
2026-04-25 01:33 40.45729 -74.87864 27339 ft 419 kts 251°
2026-04-25 01:33 40.44413 -74.91238 28153 ft 413 kts 251°
2026-04-25 01:34 40.43044 -74.94520 28842 ft 415 kts 247°
2026-04-25 01:34 40.41418 -74.97664 29296 ft 424 kts 242°
2026-04-25 01:34 40.39566 -75.00655 29812 ft 427 kts 238°
2026-04-25 01:34 40.37558 -75.03622 29902 ft 435 kts 236°
2026-04-25 01:35 40.33435 -75.09384 29912 ft 432 kts 235°
2026-04-25 01:35 40.29340 -75.15012 29916 ft 425 kts 236°
2026-04-25 01:36 40.25295 -75.20624 29914 ft 427 kts 236°
2026-04-25 01:36 40.21213 -75.26319 29914 ft 428 kts 236°
2026-04-25 01:37 40.17147 -75.31982 29910 ft 427 kts 236°
2026-04-25 01:37 40.13096 -75.37607 29910 ft 426 kts 235°
2026-04-25 01:38 40.09034 -75.43241 29910 ft 426 kts 235°
2026-04-25 01:38 40.05007 -75.48824 29906 ft 424 kts 235°
2026-04-25 01:39 40.02988 -75.51609 29708 ft 418 kts 235°
2026-04-25 01:39 40.01007 -75.54338 29332 ft 411 kts 235°
2026-04-25 01:39 39.99071 -75.56998 29006 ft 404 kts 235°
2026-04-25 01:39 39.97154 -75.59634 28546 ft 400 kts 235°
2026-04-25 01:40 39.95255 -75.62253 28026 ft 397 kts 234°
2026-04-25 01:40 39.93371 -75.64857 27502 ft 395 kts 235°
2026-04-25 01:40 39.91579 -75.67529 26989 ft 389 kts 239°
2026-04-25 01:40 39.89963 -75.70334 26462 ft 384 kts 242°
2026-04-25 01:41 39.88457 -75.73183 25931 ft 380 kts 243°
2026-04-25 01:41 39.87019 -75.76002 25413 ft 377 kts 243°
2026-04-25 01:41 39.85577 -75.78848 24894 ft 375 kts 243°
2026-04-25 01:41 39.84137 -75.81668 24383 ft 373 kts 243°
2026-04-25 01:42 39.82716 -75.84425 23873 ft 371 kts 242°
2026-04-25 01:42 39.81278 -75.87204 23355 ft 369 kts 242°
2026-04-25 01:42 39.79863 -75.89925 22864 ft 367 kts 242°
2026-04-25 01:42 39.78323 -75.92610 22331 ft 372 kts 229°
2026-04-25 01:43 39.76418 -75.94809 21873 ft 367 kts 231°
2026-04-25 01:43 39.74738 -75.97250 21350 ft 363 kts 237°
2026-04-25 01:43 39.73338 -75.99931 20835 ft 354 kts 246°
2026-04-25 01:43 39.72242 -76.02741 20321 ft 350 kts 251°
2026-04-25 01:44 39.71273 -76.05620 19782 ft 349 kts 252°
2026-04-25 01:44 39.70282 -76.08485 19328 ft 348 kts 247°
2026-04-25 01:44 39.69013 -76.11173 18873 ft 348 kts 240°
2026-04-25 01:44 39.67618 -76.13681 18398 ft 347 kts 239°
2026-04-25 01:45 39.66189 -76.16201 17907 ft 345 kts 239°
2026-04-25 01:45 39.64807 -76.18694 17484 ft 341 kts 239°
2026-04-25 01:45 39.63460 -76.21184 17046 ft 337 kts 240°
2026-04-25 01:45 39.62122 -76.23696 16570 ft 335 kts 240°
2026-04-25 01:46 39.60822 -76.26154 16102 ft 333 kts 240°
2026-04-25 01:46 39.59472 -76.28573 15633 ft 333 kts 236°
2026-04-25 01:46 39.57897 -76.30765 15157 ft 335 kts 226°
2026-04-25 01:46 39.56048 -76.32636 14698 ft 336 kts 219°
2026-04-25 01:47 39.54123 -76.34307 14239 ft 335 kts 218°
2026-04-25 01:47 39.52156 -76.35939 13740 ft 333 kts 218°
2026-04-25 01:47 39.50222 -76.37553 13295 ft 330 kts 218°
2026-04-25 01:47 39.48314 -76.39168 12813 ft 328 kts 218°
2026-04-25 01:48 39.46430 -76.40790 12358 ft 325 kts 219°
2026-04-25 01:48 39.44564 -76.42409 11998 ft 319 kts 219°
2026-04-25 01:48 39.42739 -76.43991 11767 ft 315 kts 219°
2026-04-25 01:48 39.40918 -76.45570 11524 ft 316 kts 219°
2026-04-25 01:49 39.39085 -76.47162 11282 ft 317 kts 219°
2026-04-25 01:49 39.37262 -76.48747 11042 ft 317 kts 219°
2026-04-25 01:49 39.35448 -76.50320 10797 ft 314 kts 219°
2026-04-25 01:49 39.33628 -76.51892 10550 ft 313 kts 219°
2026-04-25 01:50 39.31830 -76.53442 10306 ft 312 kts 219°
2026-04-25 01:50 39.30028 -76.54997 10062 ft 311 kts 219°
2026-04-25 01:50 39.28276 -76.56503 9969 ft 294 kts 219°
2026-04-25 01:50 39.26613 -76.57927 10024 ft 278 kts 219°
2026-04-25 01:51 39.25003 -76.59316 9997 ft 279 kts 220°
2026-04-25 01:51 39.23400 -76.60709 9999 ft 281 kts 219°
2026-04-25 01:51 39.21779 -76.62112 9997 ft 281 kts 219°
2026-04-25 01:51 39.20145 -76.63522 9996 ft 281 kts 219°
2026-04-25 01:52 39.18511 -76.64925 9997 ft 281 kts 219°
2026-04-25 01:52 39.16911 -76.66377 9995 ft 281 kts 223°
2026-04-25 01:52 39.15448 -76.67993 9996 ft 277 kts 227°
2026-04-25 01:52 39.14042 -76.69685 9999 ft 278 kts 228°
2026-04-25 01:53 39.12630 -76.71411 9998 ft 277 kts 229°
2026-04-25 01:53 39.11230 -76.73104 9996 ft 277 kts 228°
2026-04-25 01:53 39.09820 -76.74789 9999 ft 278 kts 228°
2026-04-25 01:53 39.08386 -76.76490 9948 ft 279 kts 228°
2026-04-25 01:54 39.06967 -76.78166 9693 ft 279 kts 227°
2026-04-25 01:54 39.05532 -76.79853 9438 ft 275 kts 227°
2026-04-25 01:54 39.04142 -76.81490 9193 ft 272 kts 227°
2026-04-25 01:54 39.02742 -76.83142 8945 ft 272 kts 227°
2026-04-25 01:55 39.01352 -76.84785 8700 ft 273 kts 227°
2026-04-25 01:55 38.99958 -76.86425 8454 ft 272 kts 226°
2026-04-25 01:55 38.98584 -76.88090 8197 ft 269 kts 231°
2026-04-25 01:55 38.97515 -76.90018 7938 ft 262 kts 251°
2026-04-25 01:56 38.97194 -76.92255 7703 ft 254 kts 274°
2026-04-25 01:56 38.97306 -76.94501 7468 ft 255 kts 276°
2026-04-25 01:56 38.97428 -76.96764 7212 ft 253 kts 275°
2026-04-25 01:56 38.97519 -76.99020 6958 ft 252 kts 275°
2026-04-25 01:57 38.98198 -77.03342 6448 ft 249 kts 303°
2026-04-25 01:57 38.99353 -77.04977 6217 ft 246 kts 317°
2026-04-25 01:57 39.00658 -77.06453 5994 ft 248 kts 318°
2026-04-25 01:58 39.01928 -77.07921 5990 ft 246 kts 317°
2026-04-25 01:58 39.03199 -77.09438 5831 ft 255 kts 316°
2026-04-25 01:58 39.04474 -77.10999 5550 ft 251 kts 315°
2026-04-25 01:58 39.05729 -77.12565 5306 ft 249 kts 315°
2026-04-25 01:59 39.07074 -77.13978 5089 ft 253 kts 331°
2026-04-25 01:59 39.08758 -77.14523 4947 ft 247 kts
2026-04-25 01:59 39.10334 -77.13957 4989 ft 226 kts 24°
2026-04-25 01:59 39.11727 -77.13313 4972 ft 204 kts
2026-04-25 02:00 39.13023 -77.13625 5030 ft 180 kts 333°
2026-04-25 02:00 39.14096 -77.14376 5007 ft 174 kts 327°
2026-04-25 02:00 39.14899 -77.15506 4991 ft 174 kts 291°
2026-04-25 02:00 39.14962 -77.17069 5014 ft 179 kts 261°
2026-04-25 02:01 39.14685 -77.18644 4897 ft 184 kts 259°
2026-04-25 02:01 39.14402 -77.20246 4589 ft 182 kts 259°
2026-04-25 02:01 39.14141 -77.21824 4293 ft 178 kts 259°
2026-04-25 02:01 39.13895 -77.23389 4013 ft 179 kts 259°
2026-04-25 02:02 39.13474 -77.24870 3702 ft 180 kts 232°
2026-04-25 02:02 39.12452 -77.25729 3410 ft 180 kts 190°
2026-04-25 02:02 39.11218 -77.25652 3128 ft 177 kts 169°
2026-04-25 02:02 39.10014 -77.25365 2976 ft 169 kts 169°
2026-04-25 02:03 39.08878 -77.25109 2991 ft 169 kts 168°
2026-04-25 02:03 39.07712 -77.24672 3000 ft 177 kts 160°
2026-04-25 02:03 39.06544 -77.24122 2988 ft 176 kts 160°
2026-04-25 02:03 39.05410 -77.23583 2990 ft 173 kts 160°
2026-04-25 02:04 39.04275 -77.23038 2995 ft 175 kts 160°
2026-04-25 02:04 39.03144 -77.22491 2991 ft 174 kts 160°
2026-04-25 02:04 39.02002 -77.21928 2991 ft 173 kts 158°
2026-04-25 02:04 39.00957 -77.21145 2996 ft 174 kts 145°
2026-04-25 02:05 38.99972 -77.20215 2994 ft 176 kts 144°
2026-04-25 02:05 38.99005 -77.19250 2962 ft 176 kts 139°
2026-04-25 02:05 38.98154 -77.18132 2935 ft 175 kts 134°
2026-04-25 02:05 38.97317 -77.16991 2882 ft 176 kts 134°
2026-04-25 02:06 38.96471 -77.15833 2716 ft 176 kts 136°
2026-04-25 02:06 38.95620 -77.14709 2385 ft 178 kts 130°
2026-04-25 02:06 38.94730 -77.13605 2087 ft 174 kts 141°
2026-04-25 02:06 38.93801 -77.12636 1888 ft 170 kts 142°
2026-04-25 02:07 38.92888 -77.11714 1606 ft 162 kts 143°
2026-04-25 02:07 38.92045 -77.10847 1435 ft 144 kts 139°
2026-04-25 02:07 38.91434 -77.09952 1331 ft 130 kts 126°
2026-04-25 02:07 38.90927 -77.08987 1183 ft 129 kts 122°
2026-04-25 02:08 38.90451 -77.07995 1163 ft 132 kts 127°
2026-04-25 02:08 38.89839 -77.07088 1032 ft 135 kts 134°
2026-04-25 02:08 38.89193 -77.06204 707 ft 137 kts 137°
2026-04-25 02:08 38.88520 -77.05391 449 ft 128 kts 137°
2026-04-25 02:09 38.87877 -77.04614 374 ft 130 kts 140°
2026-04-25 02:09 38.87091 -77.04095 234 ft 133 kts 168°
2026-04-25 02:09 38.86169 -77.03892 71 ft 133 kts 174°
2026-04-25 02:09 38.85361 -77.03798 21 ft 82 kts 175°
2026-04-25 02:10 38.85012 -77.03762 21 ft 33 kts 176°
2026-04-25 02:10 38.84882 -77.03835 21 ft 7 kts 256°
2026-04-25 02:10 38.84880 -77.03855 21 ft 1 kts 261°
2026-04-25 02:10 38.84877 -77.03883 21 ft 8 kts 265°
2026-04-25 02:11 38.84887 -77.03938 23 ft 4 kts 309°
2026-04-25 02:11 38.84933 -77.03954 23 ft 9 kts 355°
2026-04-25 02:11 38.84990 -77.03965 23 ft 6 kts 322°
2026-04-25 02:11 38.85000 -77.04009 24 ft 4 kts 277°
2026-04-25 02:12 38.85004 -77.04036 25 ft 2 kts 281°
2026-04-25 02:12 38.85005 -77.04044 25 ft 0 kts 281°